This demonstration page uses our WeatherBlox Daily Observations layout. Learn more.

38.88101, -77.10428

Hourly Observations for June 19, 2019

Temp ( °F °C ) Dew Point ( °F °C ) Humidity (%) Winds ( mph kmh ) Pressure ( in mb ) Visibility ( mi km ) Precip ( " mm )
12:52 am 00:52 Cloudy 73 22.8 70 21.1 90 90 SSE 6 9 29.9 1013 10 16.0934 0 0
1:00 am 01:00 Cloudy 73 22.8 70 21.1 90 90 Calm 29.9 1012 10 16.0934 0 0
1:10 am 01:10 Cloudy 73 22.8 70 21.1 90 90 S 5 7 29.9 1012 10 16.0934 0 0
1:52 am 01:52 Cloudy 73 22.8 70 21.1 90 90 S 7 11 29.89 1012 10 16.0934 0 0
2:26 am 02:26 Cloudy 73 22.8 70 21.1 90 90 S 9 15 29.88 1012 10 16.0934 0 0
2:52 am 02:52 Cloudy 73 22.8 70 21.1 90 90 S 7 11 29.87 1011 10 16.0934 0 0
3:09 am 03:09 Cloudy 73 22.8 70 21.1 90 90 S 5 7 29.86 1011 10 16.0934 0 0
3:52 am 03:52 Cloudy 72 22.2 69 20.6 91 91 S 5 7 29.84 1011 10 16.0934 0 0
4:52 am 04:52 Cloudy 73 22.8 70 21.1 90 90 SSW 3 6 29.84 1011 10 16.0934 0 0
5:52 am 05:52 Cloudy 73 22.8 69 20.6 87 87 SSW 3 6 29.84 1010 10 16.0934 0 0
6:52 am 06:52 Cloudy 73 22.8 69 20.6 87 87 S 6 9 29.84 1010 10 16.0934 0 0
7:52 am 07:52 Cloudy 74 23.3 70 21.1 88 88 S 9 15 29.84 1011 10 16.0934 0 0
8:52 am 08:52 Cloudy 74 23.3 69 20.6 85 85 S 5 7 29.85 1011 10 16.0934 0 0
9:08 am 09:08 Cloudy 75 23.9 69 20.6 82 82 S 7 11 29.85 1011 10 16.0934 0 0
9:52 am 09:52 Mostly Cloudy 76 24.4 69 20.6 79 79 S 7 11 29.85 1011 10 16.0934 0 0
10:26 am 10:26 Mostly Cloudy 77 25 70 21.1 79 79 S 8 13 29.84 1010 10 16.0934 0 0
10:52 am 10:52 Mostly Cloudy 79 26.1 71 21.7 77 77 S 9 15 29.83 1010 10 16.0934 0 0
11:52 am 11:52 Mostly Cloudy 80 26.7 71 21.7 74 74 S 9 15 29.82 1010 10 16.0934 0 0.0254
12:52 pm 12:52 Mostly Cloudy 80 26.7 70 21.1 71 71 SE 5 7 29.81 1010 10 16.0934 0 0
1:52 pm 13:52 Mostly Cloudy 82 27.8 71 21.7 69 69 S 9 15 29.78 1009 10 16.0934 0 0
2:52 pm 14:52 Mostly Cloudy 84 28.9 70 21.1 63 63 SSE 7 11 29.76 1008 10 16.0934 0 0
3:52 pm 15:52 Mostly Cloudy 85 29.4 72 22.2 65 65 SSE 10 17 29.73 1007 10 16.0934 0 0
4:52 pm 16:52 Mostly Cloudy 85 29.4 71 21.7 63 63 S 9 15 29.71 1006 10 16.0934 0 0
5:52 pm 17:52 Mostly Cloudy 84 28.9 73 22.8 70 70 S 12 19 29.7 1006 10 16.0934 0 0
6:31 pm 18:31 Mostly Cloudy with Nearby Thunderstorms 84 28.9 74 23.3 72 72 S 12 19 29.7 1006 10 16.0934 0 0
6:52 pm 18:52 Mostly Cloudy with Nearby Thunderstorms 83 28.3 73 22.8 72 72 S 10 17 29.69 1006 10 16.0934 0 0
6:54 pm 18:54 Mostly Cloudy 83 28.3 73 22.8 72 72 S 13 20 29.69 1005 10 16.0934 0 0
7:26 pm 19:26 Mostly Cloudy with Thunderstorms 84 28.9 73 22.8 70 70 S 10 17 29.69 1005 10 16.0934 0 0
7:40 pm 19:40 Mostly Cloudy 83 28.3 73 22.8 72 72 S 9 15 29.69 1005 10 16.0934 0 0
7:52 pm 19:52 Mostly Cloudy 83 28.3 73 22.8 72 72 S 10 17 29.69 1006 10 16.0934 0 0
8:52 pm 20:52 Mostly Cloudy 82 27.8 74 23.3 77 77 SSE 10 17 29.69 1006 10 16.0934 0 0
9:52 pm 21:52 Mostly Cloudy 80 26.7 71 21.7 74 74 S 13 20 29.7 1006 10 16.0934 0 0.0254
10:52 pm 22:52 Partly Cloudy 78 25.6 72 22.2 82 82 S 8 13 29.7 1006 10 16.0934 0 0
11:52 pm 23:52 Mostly Cloudy 78 25.6 72 22.2 82 82 S 10 17 29.69 1005 10 16.0934 0 0

Powered by AerisWeather